Flag for Germany Weather past 2 weeks in Neubrandenburg, Mecklenburg-Western Pomerania, Germany

Now
43 °F

Passing clouds.


Feels Like: 43 °F
Forecast: 33 / 45 °F
Wind: 2 mph from Southeast

Location: Greifswald

Current Time: Feb 27, 2015 at 6:45:54 PM

Latest Report: Feb 27, 2015 at 6:00 PM


Visibility: 8 mi

Pressure: 29.92 "Hg

Humidity: 68%

Dew point: 33 °F

Location of NeubrandenburgLocation

Historic Weather in Neubrandenburg — Graph

°F

Neubrandenburg temperature yesterday

Maximum temperature yesterday: 48 °F (at 3:00 PM)
Minimum temperature yesterday: 29 °F (at 3:00 AM)
Average temperature yesterday: 38 °F

Past Weeks' High & Low Weather Summary

 TemperatureHumidityPressure
High49 °F (Feb 27, 3:00 PM)99% (Feb 13, 11:00 PM)30.66 "Hg (Feb 13, 11:00 PM)
Low26 °F (Feb 14, 5:00 AM)43% (Feb 19, 3:00 PM)29.26 "Hg (Feb 21, 3:00 PM)
Average36 °F81%30.01 "Hg
* Reported Feb 12 5:00 PM — Feb 27 5:00 PM, Neubrandenburg, Weather by CustomWeather, © 2015

Note: Actual official high and low records may vary slightly from our data, if they occured in-between our weather recording intervals... More about our weather records

Advertising

Neubrandenburg weather history for previous 24 hours

 ConditionsComfort  
Time TempWeatherWind HumidityBarometerVisibility
5:00 PM
Fri, Feb 27
47 °FPassing clouds.3 mph58%29.90 "Hg7 mi
3:00 PM49 °FPassing clouds.3 mph52%29.90 "Hg7 mi
2:00 PM48 °FPassing clouds.5 mph54%29.89 "Hg7 mi
1:00 PM47 °FPassing clouds.5 mph55%29.90 "Hg8 mi
12:00 PM45 °FSunny.5 mph60%29.91 "Hg6 mi
11:00 AM42 °FSunny.3 mph66%29.91 "Hg5 mi
10:00 AM38 °FSunny.5 mph74%29.91 "Hg5 mi
9:00 AM35 °FSunny.5 mph81%29.90 "Hg5 mi
8:00 AM33 °FFog.6 mph87%29.91 "Hg3 mi
7:00 AM33 °FFog.3 mph87%29.90 "Hg3 mi
6:00 AM33 °FFog.5 mph87%29.90 "Hg4 mi
5:00 AM33 °FFog.5 mph85%29.91 "Hg4 mi
4:00 AM34 °FClear.5 mph82%29.92 "Hg6 mi
3:00 AM34 °FClear.5 mph81%29.94 "Hg6 mi
2:00 AM35 °FClear.3 mph77%29.96 "Hg7 mi
1:00 AM36 °FClear.5 mph75%29.97 "Hg8 mi
12:00 AM36 °FClear.3 mph74%29.99 "Hg10 mi
11:00 PM
Thu, Feb 26
36 °FClear.3 mph73%30.01 "Hg11 mi
9:00 PM38 °FClear.3 mph68%30.04 "Hg11 mi
8:00 PM40 °FClear.5 mph65%30.05 "Hg11 mi
7:00 PM41 °FClear.5 mph64%30.06 "Hg12 mi
6:00 PM42 °FClear.5 mph63%30.07 "Hg16 mi
Weather by CustomWeather, © 2015

See weather overviewHow to use our weather pages